Regional Weather Roundup
Issued by NWS

Home | Current Version | Previous Version | Text Only | Print | Product List | Glossary Off
Versions: 1 2 3 4 5 6 7 8 9 10 11 12 13 14 15 16 17 18 19 20 21 22 23 24 25 26 27 28 29 30 31 32 33 34 35 36 37 38 39 40 41 42 43 44 45 46 47 48 49 50

000
ASUS43 KDMX 281503
RWRIA

WEATHER ROUNDUP FOR IOWA
NATIONAL WEATHER SERVICE DES MOINES IA
1000 AM CDT THU APR 28 2016

NOTE: "FAIR" INDICATES FEW OR NO CLOUDS BELOW 12,000 FEET WITH NO
SIGNIFICANT WEATHER AND/OR OBSTRUCTIONS TO VISIBILITY.

* - THESE STATIONS ARE NOT NWS STATIONS...THUS NOT UNDER NWS
QUALITY CONTROL.  THEY ALSO DO NOT REPORT WEATHER SUCH
AS PRECIPITATION OR FOG.

IAZ001>003-012>014-020>022-031>034-043>046-281600-
   NORTHWEST IOWA

CITY           SKY/WX    TMP DP  RH WIND       PRES   REMARKS
CARROLL *      DRIZZLE   48  48 100 N3        29.79R
CHEROKEE *     CLOUDY    41  41 100 N7        29.86R
DENISON *      DRZL/FOG  45  45 100 N10       29.81R VSB 1
LE MARS *      CLOUDY    41  39  93 NE9       29.90R
ORANGE CITY *  CLOUDY    39  37  93 NE6       29.89R WCI  35
SHELDON *      CLOUDY    39  37  93 NE12      29.87R WCI  32
SIOUX CITY     LGT RAIN  44  41  89 N12       29.90R
SPENCER        LGT RAIN  40  37  89 NE14      29.87R WCI  32
STORM LAKE *   CLOUDY    41  39  93 NE14      29.84R
$$

IAZ055>058-069>071-079>083-090>094-281600-
   SOUTHWEST IOWA

CITY           SKY/WX    TMP DP  RH WIND       PRES   REMARKS
ATLANTIC *     CLOUDY    46  45  93 NW14      29.83R
AUDUBON *      CLOUDY    48  45  87 NW8       29.81R
CLARINDA *       N/A    N/A N/A N/A MISG        N/A
COUNCIL BLFS * CLOUDY    46  45  93 NW12      29.86R
CRESTON *      CLOUDY    48  45  87 W9G15     29.83R
HARLAN  *      CLOUDY    46  45  93 NW17      29.87R
LAMONI         CLOUDY    50  45  83 NW15      29.82R
RED OAK *      CLOUDY    48  46  93 NW12G17   29.85R
SHENANDOAH *   CLOUDY    48  46  93 NW10G16   29.86R
$$

IAZ047>049-059>061-072>074-084-281600-
   CENTRAL IOWA

CITY           SKY/WX    TMP DP  RH WIND       PRES   REMARKS
AMES           LGT RAIN  47  46  97 CALM      29.81R FOG
ANKENY *       CLOUDY    50  46  87 W6        29.80S
BOONE *        CLOUDY    46  45  93 CALM      29.80R
CHARITON *     LGT RAIN  50  46  87 W7        29.81R
DES MOINES     CLOUDY    51  44  77 NW3       29.81R
GRINNELL*      CLOUDY    48  46  93 NW6       29.81R
KNOXVILLE *    CLOUDY    50  45  81 W7        29.80R
MARSHALLTOWN   CLOUDY    48  46  93 E13       29.79R FOG
NEWTON *       PTSUNNY   48  48 100 NW7       29.80R
PELLA *        CLOUDY    51  44  78 W6        29.82R
$$

IAZ004>006-015-016-023>025-035-036-281600-
   NORTH CENTRAL IOWA

CITY           SKY/WX    TMP DP  RH WIND       PRES   REMARKS
ALGONA *       MOSUNNY   41  41 100 NE10      29.85R FOG
CLARION *      CLOUDY    45  45 100 E21       29.82R
ESTHERVILLE    LGT RAIN  38  37  97 NE15      29.87R FOG     WCI  29
FORT DODGE *   CLOUDY    45  39  81 E10       29.82R
MASON CITY     CLOUDY    42  39  89 E14       29.85R
FOREST CITY *  CLOUDY    41  37  87 E9        29.85R
WEBSTER CITY * CLOUDY    46  45  93 E12       29.80R
IOWA FALLS *   DRIZZLE   46  45  93 E8        29.82R
$$

IAZ007>011-017>019-026>030-037>042-050>054-066-281600-
   NORTHEAST IOWA

CITY           SKY/WX    TMP DP  RH WIND       PRES   REMARKS
CEDAR RAPIDS   CLOUDY    48  48 100 E13       29.80S FOG
CHARLES CITY * CLOUDY    43  43 100 E17       29.83F
CLINTON *      CLOUDY    48  45  89 E16       29.84R
DECORAH *      CLOUDY    43  37  81 E13       29.85S
DUBUQUE        CLOUDY    46  44  93 E12       29.84S
MONTICELLO *   CLOUDY    48  46  93 E12       29.83R FOG
OELWEIN *      CLOUDY    45  45 100 E15G23    29.83S
WATERLOO       CLOUDY    46  42  86 E13       29.82R
$$

IAZ064-065-067-068-078-281600-
   EAST CENTRAL IOWA

CITY           SKY/WX    TMP DP  RH WIND       PRES   REMARKS
DAVENPORT      CLOUDY    49  46  90 E14       29.83R FOG
IOWA CITY      CLOUDY    51  50  96 E5        29.82R FOG
MT. PLEASANT * PTSUNNY   56  49  78 SW9       29.81R
MUSCATINE *    CLOUDY    54  50  87 SE7       29.81S
QUAD CITIES    CLOUDY    50  46  86 E14       29.82R FOG
$$

IAZ062-063-075>077-085>089-095>099-281600-
   SOUTHEAST IOWA

CITY           SKY/WX    TMP DP  RH WIND       PRES   REMARKS
BURLINGTON     CLOUDY    55  51  86 W7        29.81R
FAIRFIELD *    CLOUDY    52  45  76 SW12      29.80S
FORT MADISON * CLOUDY    54  48  82 W10G16    29.82R
KEOKUK *       PTSUNNY   54  46  76 W15       29.82R
OSKALOOSA *    CLOUDY    50  45  85 W6        29.81R
OTTUMWA        CLOUDY    50  45  83 W7        29.80S
WASHINGTON *   CLOUDY    52  52 100 W8        29.82R
$$

ABBREVIATIONS USED IN REMARKS
   TC - TEMPERATURES IN CELSIUS
  WCI - WIND CHILL INDEX
   HX - HEAT INDEX
  VSB - VISIBILITY
$$




USA.gov is the U.S. government's official web portal to all federal, state and local government web resources and services.